F1ZRP-13 Weather Reports


time (UTC)temp
C
wind
direction
speed
KPH
gust
KPH
rain 1hr
cm
rain 24hr
cm
rain mn
cm
humidity
%
barometer
mb
20260507113200 14 0.0 0.0 0.00 0.00 0.00 65 1016.6
20260507111514 13 0.0 0.0 0.00 0.00 0.00 65 1016.6
20260507110047 13 0.0 0.0 0.00 0.00 0.00 65 1016.6
20260507104700 13 0.0 0.0 0.00 0.00 0.00 66 1016.6
20260507103432 13 0.0 0.0 0.00 0.00 0.00 68 1016.7
20260507102156 13 0.0 0.0 0.00 0.00 0.00 69 1016.7
20260507100736 13 0.0 0.0 0.00 0.00 0.00 68 1016.6
20260507095341 13 0.0 0.0 0.00 0.00 0.00 72 1016.5
20260507093554 13 0.0 0.0 0.00 0.00 0.00 72 1016.4
20260507091717 13 0.0 0.0 0.00 0.00 0.00 71 1016.2
20260507090155 13 0.0 0.0 0.00 0.00 0.00 71 1016.1
20260507084528 12 0.0 0.0 0.00 0.00 0.00 73 1016.0
20260507083430 12 0.0 0.0 0.00 0.00 0.00 76 1016.0
20260507081700 11 0.0 0.0 0.00 0.00 0.00 77 1015.9
20260507075956 12 0.0 0.0 0.00 0.00 0.00 77 1015.8
20260507073924 11 0.0 0.0 0.00 0.00 0.00 81 1015.8
20260507072013 10 0.0 0.0 0.00 0.00 0.00 83 1015.5
20260507070650 10 0.0 0.0 0.00 0.00 0.00 83 1015.4
20260507065022 10 0.0 0.0 0.00 0.00 0.00 86 1015.3
20260507063552 9 0.0 0.0 0.00 0.00 0.00 87 1015.3
20260507061628 9 0.0 0.0 0.00 0.00 0.00 88 1015.2
20260507060103 8 0.0 0.0 0.00 0.00 0.00 88 1015.1
20260507054445 8 0.0 0.0 0.00 0.00 0.00 88 1015.0
20260507052954 8 0.0 0.0 0.00 0.00 0.00 89 1014.8
20260507051831 8 0.0 0.0 0.00 0.00 0.00 89 1014.8
20260507050246 7 0.0 0.0 0.00 0.00 0.00 89 1014.6
20260507045048 7 0.0 0.0 0.00 0.00 0.00 90 1014.5
20260507043347 7 0.0 0.0 0.00 0.00 0.00 91 1014.3
20260507041919 7 0.0 0.0 0.00 0.00 0.00 91 1014.1
20260507040403 7 0.0 0.0 0.00 0.00 0.00 91 1014.0
20260507034606 7 0.0 0.0 0.00 0.00 0.00 90 1014.0
20260507033234 7 0.0 0.0 0.00 0.00 0.00 90 1013.9
20260507031524 7 0.0 0.0 0.00 0.00 0.00 90 1013.8
20260507025724 7 0.0 0.0 0.00 0.00 0.00 90 1013.6
20260507024007 7 0.0 0.0 0.00 0.00 0.00 90 1013.7
20260507022344 7 0.0 0.0 0.00 0.00 0.00 90 1013.6
20260507020520 8 0.0 0.0 0.00 0.00 0.00 89 1013.5
20260507014945 8 0.0 0.0 0.00 0.00 0.00 89 1013.3
20260507013249 8 0.0 0.0 0.00 0.00 0.00 87 1013.3
20260507012049 8 0.0 0.0 0.00 0.00 0.00 86 1013.3
20260507011029 8 0.0 0.0 0.00 0.00 0.00 85 1013.2
20260507005322 9 0.0 0.0 0.00 0.00 0.00 85 1013.2
20260507003712 9 0.0 0.0 0.00 0.00 0.00 86 1013.1
20260507002039 9 0.0 0.0 0.00 0.00 0.00 87 1013.0
20260507000831 9 0.0 0.0 0.00 0.00 0.00 86 1012.9
20260506235500 9 0.0 0.0 0.00 0.00 0.00 87 1012.9
20260506234012 10 0.0 0.0 0.00 0.00 0.00 87 1012.9
20260506232157 10 0.0 0.0 0.00 0.00 0.00 87 1012.8
20260506230834 10 0.0 0.0 0.00 0.00 0.00 87 1012.7
20260506224920 10 0.0 0.0 0.00 0.00 0.00 87 1012.6
20260506223008 10 0.0 0.0 0.00 0.00 0.00 85 1012.6
20260506221734 10 0.0 0.0 0.00 0.00 0.00 85 1012.4
20260506220228 10 0.0 0.0 0.00 0.00 0.00 85 1012.3
20260506214448 10 0.0 0.0 0.00 0.00 0.00 86 1012.1
20260506213240 10 0.0 0.0 0.00 0.00 0.00 86 1012.1
20260506211715 10 0.0 0.0 0.00 0.00 0.00 86 1011.9
20260506210003 10 0.0 0.0 0.00 0.00 0.00 82 1011.8
20260506204224 10 0.0 0.0 0.00 0.00 0.00 81 1011.7
20260506202932 10 0.0 0.0 0.00 0.00 0.00 81 1011.6
20260506201149 11 0.0 0.0 0.00 0.00 0.00 80 1011.6
20260506195636 11 0.0 0.0 0.00 0.00 0.00 81 1011.4
20260506193623 11 0.0 0.0 0.00 0.00 0.00 81 1011.1
20260506192004 11 0.0 0.0 0.00 0.00 0.00 83 1010.9
20260506190642 11 0.0 0.0 0.00 0.00 0.00 82 1010.7
20260506185136 11 0.0 0.0 0.00 0.00 0.00 81 1010.7
20260506183407 11 0.0 0.0 0.00 0.00 0.00 80 1010.5
20260506181717 11 0.0 0.0 0.00 0.00 0.00 80 1010.3
20260506180230 12 0.0 0.0 0.00 0.00 0.00 81 1010.1
20260506174859 12 0.0 0.0 0.00 0.00 0.00 80 1009.9
20260506173204 12 0.0 0.0 0.00 0.00 0.00 77 1009.7
20260506171702 13 0.0 0.0 0.00 0.00 0.00 77 1009.5
20260506170342 13 0.0 0.0 0.00 0.00 0.00 77 1009.5
20260506164803 13 0.0 0.0 0.00 0.00 0.00 78 1009.4
20260506162917 12 0.0 0.0 0.00 0.00 0.00 82 1009.4
20260506161510 12 0.0 0.0 0.00 0.00 0.00 83 1009.4
20260506160238 12 0.0 0.0 0.00 0.00 0.00 84 1009.4
20260506154945 12 0.0 0.0 0.00 0.00 0.00 84 1009.4
20260506142640 12 0.0 0.0 0.00 0.00 0.00 90 1008.9
20260506141121 12 0.0 0.0 0.00 0.00 0.00 91 1008.9
20260506135837 12 0.0 0.0 0.00 0.00 0.00 91 1008.7
20260506134545 12 0.0 0.0 0.00 0.00 0.00 91 1008.7
20260506132852 12 0.0 0.0 0.00 0.00 0.00 93 1008.9
20260506131633 11 0.0 0.0 0.00 0.00 0.00 93 1009.0
20260506130056 11 0.0 0.0 0.00 0.00 0.00 93 1008.9
20260506124728 11 0.0 0.0 0.00 0.00 0.00 94 1008.7
20260506123328 11 0.0 0.0 0.00 0.00 0.00 94 1008.6
20260506121831 12 0.0 0.0 0.00 0.00 0.00 94 1008.5
20260506120323 11 0.0 0.0 0.00 0.00 0.00 94 1008.4
20260506115215 11 0.0 0.0 0.00 0.00 0.00 94 1008.2